{"data":{"norad_id":53640,"epoch":"2026-05-24T23:08:00.240288Z","epoch_age_seconds":68283,"freshness":"FRESH","line1":"1 53640U 22104BE  26144.96389167  .00034893  00000+0  22063-2 0  9994","line2":"2 53640  53.2144 241.4609 0003020  80.6582 279.4751 15.08726270207742","mean_motion":15.0872627,"eccentricity":0.000302,"inclination_deg":53.2144,"raan_deg":241.4609,"arg_perigee_deg":80.6582,"mean_anomaly_deg":279.4751,"bstar":0.0022063,"rev_number":20774,"period_min":95.444748900674,"perigee_km":538.00173304529,"apogee_km":542.18034278019,"semimajor_km":6918.2280379127,"source":"CELESTRAK","updated_at":"2026-05-25T13:38:17.483454Z"}}